Regional Weather Roundup
Issued by NWS Northern Indiana

Home | Current Version | Previous Version | Text Only | Print | Product List | Glossary Off
Versions: 1 2 3 4 5 6 7 8 9 10 11 12 13 14 15 16 17 18 19 20 21 22 23 24 25 26 27 28 29 30 31 32 33 34 35 36 37 38 39 40 41 42 43 44 45 46 47 48 49 50

000
ASUS43 KIWX 210610
RWRIWX

KIWX WEATHER ROUNDUP
NATIONAL WEATHER SERVICE NORTHERN INDIANA
200 AM EDT SUN SEP 21 2014

NOTE: "FAIR" INDICATES FEW OR NO CLOUDS BELOW 12,000 FEET WITH NO
SIGNIFICANT WEATHER AND/OR OBSTRUCTIONS TO VISIBILITY.

* THESE STATIONS ARE NOT UNDER NWS QUALITY CONTROL. THEY ALSO MAY NOT
  REPORT WEATHER SUCH AS PRECIPITATION OR FOG.

INZ001>027-210700-
NORTHERN INDIANA

CITY           SKY/WX    TMP DP  RH WIND       PRES   REMARKS
GARY*          CLEAR     71  68  90 SW7       29.71F
VALPARAISO     PTCLDY    68  66  93 SW14      29.74F
6HR MIN TEMP:  66; 6HR MAX TEMP:  69; 6HR PCP:  0.02;

MICHIGAN CITY* PTCLDY    66  66 100 SW10      29.71F
LAPORTE*       PTCLDY    66  66 100 SW9       29.74F FOG
6HR MIN TEMP:  65; 6HR MAX TEMP:  66;

KNOX*          CLEAR     67  64  91 SW9       29.74F
SOUTH BEND     CLOUDY    68  65  90 SW12      29.73F
6HR MIN TEMP:  66; 6HR MAX TEMP:  69; 6HR PCP: TRACE;

GOSHEN         MOCLDY   N/A N/A N/A S12       29.73F
                                      6HR PCP:  0.01;

MONTICELLO*    MOCLDY    67  67  98 SW7       29.78F
6HR MIN TEMP:  66; 6HR MAX TEMP:  68; 6HR PCP:  0.17;

LOGANSPORT*    CLOUDY    68  64  88 SW8       29.80F
ROCHESTER*     CLOUDY    70  70 100 S8        29.77F
WARSAW*        CLOUDY    68  66  94 SW6       29.76F
ANGOLA*        CLOUDY    66  57  72 SW9       29.75F
FORT WAYNE     CLOUDY    67  65  93 S12       29.79F
6HR MIN TEMP:  64; 6HR MAX TEMP:  67; 6HR PCP:  0.22;

HUNTINGTON*    RAIN      67  66  97 SW5       29.78F
6HR MIN TEMP:  64; 6HR MAX TEMP:  67; 6HR PCP:  0.06;

PERU/GRISSOM   CLOUDY    68  68 100 SW9       29.79F
6HR MIN TEMP:  64; 6HR MAX TEMP:  68; 6HR PCP:  0.42;

MARION*        CLOUDY    65  65  98 SW7       29.80F
6HR MIN TEMP:  40; 6HR MAX TEMP:  90; 6HR PCP:  0.66;


$$
INZ028>050-210700-
CENTRAL INDIANA

CITY           SKY/WX    TMP DP  RH WIND       PRES   REMARKS
LAFAYETTE      MOCLDY    68  67  96 W6        29.80F
6HR MIN TEMP:  65; 6HR MAX TEMP:  70; 6HR PCP:  1.53;

KOKOMO*        CLOUDY    66  64  94 W10       29.81F THUNDER
6HR MIN TEMP:  64; 6HR MAX TEMP:  68; 6HR PCP:  1.19;

MUNCIE*        CLOUDY    70  65  84 SW10      29.81F
6HR MIN TEMP:  66; 6HR MAX TEMP:  76; 6HR PCP:  0.23;

INDIANAPOLIS   CLOUDY    72  66  81 SW17      29.83F
6HR MIN TEMP:  70; 6HR MAX TEMP:  74; 6HR PCP:  0.02;


$$
MIZ043>046-050>051-056>058-064>065-071>073-077>080-210700-
SOUTHWEST LOWER MICHIGAN

CITY           SKY/WX    TMP DP  RH WIND       PRES   REMARKS
BATTLE CREEK   CLOUDY    67  65  93 SW12      29.73F
6HR MIN TEMP:  63; 6HR MAX TEMP:  67;

BENTON HARBOR  PTCLDY    66  65  96 S8        29.69F FOG
6HR MIN TEMP:  64; 6HR MAX TEMP:  68;

COLDWATER*     MOCLDY    66  65  94 SW9       29.74F
6HR MIN TEMP:  64; 6HR MAX TEMP:  67;

HILLSDALE*     CLOUDY    66  66 100 SW9G16    29.76F
6HR MIN TEMP:  64; 6HR MAX TEMP:  66;

HOLLAND        TSTM      68  66  93 SW16      29.68F FOG
6HR MIN TEMP:  65; 6HR MAX TEMP:  69; 6HR PCP:  0.06;

GRAND RAPIDS   TSTM      66  66 100 S10       29.68F FOG
6HR MIN TEMP:  65; 6HR MAX TEMP:  67; 6HR PCP:  0.33;

KALAMAZOO      CLOUDY    67  65  93 S10       29.71F FOG
6HR MIN TEMP:  62; 6HR MAX TEMP:  68;

STURGIS*       MOCLDY    66  64  94 S12G17    29.74F
THREE RIVERS*  CLOUDY    66  65  97 SW6       29.73F FOG
6HR MIN TEMP:  62; 6HR MAX TEMP:  67;


$$
OHZ001>008-015>018-024>025-210700-
NORTHWEST OHIO

CITY           SKY/WX    TMP DP  RH WIND       PRES   REMARKS
WAUSEON*       CLOUDY    64  64 100 S9        29.78F
DEFIANCE       MOCLDY   N/A N/A N/A SW8       29.79F
                                      6HR PCP:  0.27;

FINDLAY        CLOUDY    66  62  87 S9        29.80F
6HR MIN TEMP:  64; 6HR MAX TEMP:  76; 6HR PCP:  0.29;

TOLEDO EXPRESS PTCLDY    64  63  96 S7        29.77F
6HR MIN TEMP:  63; 6HR MAX TEMP:  67; 6HR PCP:  0.22;

TOLEDO METCALF LGT RAIN  65  62  90 S10       29.79F
6HR MIN TEMP:  65; 6HR MAX TEMP:  72; 6HR PCP:  0.43;

LIMA           CLOUDY    70  65  84 S10       29.81F
6HR MIN TEMP:  64; 6HR MAX TEMP:  76; 6HR PCP:  0.28;


$$
AND FOR LAKE MICHIGAN COASTAL AND OPEN LAKE BUOY OBSERVATIONS

STATION/POSITION TEMP    WIND        PRES    VSBY  WAVE
                 AIR SEA DIR/SP/G                  HT/PER
                 (F)     (DEG/KT/KT) (MB)    (MI)  (FT/S)
CALUMET HARBOR    70     210/  9/ 15 1004.8F
MICHIGAN CITY     69     180/ 17/ 21   N/A
SAINT JOSEPH      70     170/ 14/ 19 1005.4F
SOUTH LAKE BUOY   66 64  210/ 10/ 12 1004.2F         1/ 3
4 MI NW BRIDGMAN  68 65  180/ 14/ 17   N/A           2/ 3
MICHIGAN CITY     69 66  210/ 16/ 19   N/A           2/ 3

$$
&&


USA.gov is the U.S. government's official web portal to all federal, state and local government web resources and services.